Flag for U.S.A. Weather past 2 weeks in Cincinnati, Ohio, U.S.A.

Now
31 °F

Ice fog.


Feels Like: 31 °F
Forecast: 33 / 47 °F
Wind: No wind

Location: Cincinnati Municipal Airport Lunken Field

Current Time: Feb 1, 2015 at 4:52:17 AM

Latest Report: Feb 1, 2015 at 3:53 AM


Visibility: 5 mi

Pressure: 30.20 "Hg

Humidity: 100%

Dew point: 31 °F

Location of CincinnatiLocation

Historic Weather in Cincinnati — Graph

°F

Cincinnati temperature yesterday

Maximum temperature yesterday: 38 °F (at 2:53 PM)
Minimum temperature yesterday: 14 °F (at 6:53 AM)
Average temperature yesterday: 27 °F

Past Weeks' High & Low Weather Summary

 TemperatureHumidityPressure
High54 °F (Jan 20, 3:53 PM)100% (Jan 19, 5:58 AM)30.52 "Hg (Jan 19, 5:58 AM)
Low12 °F (Jan 28, 5:53 AM)37% (Jan 17, 3:53 PM)29.68 "Hg (Jan 25, 3:53 PM)
Average33 °F73%30.08 "Hg
* Reported Jan 17 3:53 AM — Feb 1 3:53 AM, Cincinnati, Weather by CustomWeather, © 2014

Note: Actual official high and low records may vary slightly from our data, if they occured in-between our weather recording intervals... More about our weather records

Advertising

Cincinnati weather history for previous 24 hours

 ConditionsComfort  
Time TempWeatherWind HumidityBarometerVisibility
3:53 AM
Feb 1
31 °FIce fog.No wind100%30.20 "Hg5 mi
2:53 AM32 °FOvercast.No wind96%30.21 "Hg7 mi
1:53 AM32 °FIce fog.No wind96%30.24 "Hg6 mi
12:53 AM31 °FIce fog.No wind100%30.24 "Hg6 mi
11:53 PM
Jan 31
32 °FLight snow. Ice fog.No wind96%30.26 "Hg6 mi
10:53 PM32 °FLight snow. Overcast.No wind88%30.27 "Hg9 mi
9:53 PM33 °FOvercast.No wind82%30.29 "Hg10 mi
8:53 PM34 °FLight rain. Overcast.5 mph73%30.30 "Hg10 mi
7:53 PM33 °FOvercast.3 mph70%30.31 "Hg10 mi
6:53 PM32 °FClear.3 mph69%30.32 "Hg10 mi
5:53 PM35 °FPassing clouds.5 mph54%30.31 "Hg10 mi
4:53 PM37 °FSunny.9 mph50%30.30 "Hg10 mi
3:53 PM38 °FSunny.8 mph46%30.31 "Hg10 mi
2:53 PM38 °FSunny.9 mph46%30.33 "Hg10 mi
1:53 PM37 °FSunny.10 mph48%30.34 "Hg10 mi
12:53 PM36 °FSunny.12 mph48%30.37 "Hg10 mi
11:53 AM35 °FSunny.9 mph52%30.40 "Hg10 mi
10:53 AM30 °FSunny.6 mph66%30.43 "Hg10 mi
9:53 AM24 °FSunny.5 mph81%30.43 "Hg10 mi
8:53 AM18 °FSunny.No wind96%30.44 "Hg7 mi
7:53 AM14 °FIce fog.No wind87%30.44 "Hg6 mi
6:53 AM14 °FClear.3 mph87%30.43 "Hg7 mi
5:53 AM15 °FClear.No wind91%30.42 "Hg7 mi
4:53 AM15 °FClear.No wind91%30.44 "Hg7 mi
Weather by CustomWeather, © 2014

See weather overviewHow to use our weather pages